[Iaude] MPEC F19: 2019 FA [a=1.34,e=0.30,i=1.1,H=28.7]

mpec at mpcdb1.cfa.harvard.edu mpec at mpcdb1.cfa.harvard.edu
Sun Mar 17 20:13:17 EDT 2019


M.P.E.C. 2019-F19                                Issued 2019 Mar. 18, 00:10 UT
 
     The Minor Planet Electronic Circulars contain information on unusual
         minor planets and routine data on comets.  They are published
    on behalf of Division F of the International Astronomical Union by the
          Minor Planet Center, Smithsonian Astrophysical Observatory,
                          Cambridge, MA 02138, U.S.A.

             Prepared using the Tamkin Foundation Computer Network

                              MPC at CFA.HARVARD.EDU
            URL https://www.minorplanetcenter.net/    ISSN 1523-6714


                                    2019 FA
 
Observations:
     K19F00A* C2019 03 16.49409 11 03 43.17 +15 03 11.7          16.0 GVEF019381
     K19F00A  C2019 03 16.49414 11 03 43.95 +15 03 06.1          16.0 GVEF019381
     K19F00A  C2019 03 16.49460 11 03 50.26 +15 02 28.8          16.2 GVEF019381
     K19F00A  C2019 03 16.49466 11 03 51.21 +15 02 21.5          16.2 GVEF019381
     K19F00A  C2019 03 16.70681 11 42 29.35 +10 36 57.1          16.1 GVEF019381
     K19F00A  C2019 03 16.70688 11 42 29.85 +10 36 53.1          16.1 GVEF019381
     K19F00A  C2019 03 16.80327 11 55 14.10 +09 04 07.1          16.2 RrEF019P93
     K19F00A  C2019 03 16.80609 11 55 34.47 +09 01 36.4          16.2 RrEF019P93
     K19F00A  C2019 03 16.80844 11 55 51.55 +08 59 29.7          16.3 RrEF019P93
     K19F00A  C2019 03 16.81078 11 56 08.34 +08 57 25.1          16.4 RrEF019P93
     K19F00A  C2019 03 17.65563 12 54 44.16 +02 18 22.3          18.5 VtEF019900
     K19F00A  C2019 03 17.66105 12 54 52.52 +02 17 00.1          18.3 VtEF019900
     K19F00A  C2019 03 17.66654 12 55 00.93 +02 15 37.0          18.0 VtEF019900
     K19F00A  C2019 03 17.78170 12 57 51.76 +01 48 29.5          18.3 RrEF019P93
     K19F00A  C2019 03 17.78476 12 57 56.12 +01 47 49.0          18.0 RrEF019P93
     K19F00A  C2019 03 17.78781 12 58 00.49 +01 47 08.9          18.6 RrEF019P93
     K19F00A KC2019 03 17.92126 13 03 01.87 +01 15 49.7          18.2 RoEF019K88
     K19F00A KC2019 03 17.92565 13 03 07.20 +01 14 59.7          18.3 RoEF019K88
     K19F00A KC2019 03 17.93005 13 03 12.50 +01 14 10.4          18.2 RoEF019K88
     K19F00A KC2019 03 17.93190613 03 29.64 +01 12 50.1          18.3 GVEF019J95
     K19F00A KC2019 03 17.93405813 03 32.40 +01 12 26.2          18.6 GVEF019J95
     K19F00A KC2019 03 17.93615813 03 35.12 +01 12 03.0          18.5 GVEF019J95
     K19F00A KC2019 03 17.93828513 03 37.80 +01 11 39.6          18.5 GVEF019J95
 
Observer details:
381 Tokyo-Kiso.  Observer Y. Kojima.  1.05-m f/3.1 Schmidt.
900 Moriyama.  Observer Y. Ikari.  0.26-m f/7.0 reflector + CCD.
J95 Great Shefford.  Observer P. Birtwhistle.  0.41-m f/6.3
    Schmidt-Cassegrain + CCD.
K88 GINOP-KHK, Piszkesteto.  Observer K. Sarneczky.  0.60-m Schmidt + CCD.
P93 Space Tracking and Communications Center, JAXA.  Observers T. Nimura,
    T. Fujiwara.  1.0-m f/3.0 reflector + CCD.
 
Orbital elements:
2019 FA                                                  Earth MOID = 0.0000 AU
Epoch 2019 Apr. 27.0 TT = JDT 2458600.5                 MPC
M  48.08513              (2000.0)            P               Q
n   0.63342933     Peri.  320.35848     -0.70255302     -0.71162883
a   1.3427771      Node   174.27277     +0.65768307     -0.65031851
e   0.2988291      Incl.    1.09974     +0.27179446     -0.26583876
P   1.56           H   28.7           G   0.15           U   5
Residuals in seconds of arc
190316 381  0.1-  0.9+    190316 P93  1.2+  0.6-    190317 K88  0.2+  0.8+
190316 381  0.9+  0.4-    190316 P93  0.7+  0.7-    190317 K88  0.3+  0.3+
190316 381 (1.9-  2.2+)   190317 900  0.0   0.2-    190317 K88  0.5+  0.4+
190316 381  0.4-  0.1+    190317 900  0.1+  0.1-    190317 J95  0.2-  0.2-
190316 381  0.2+  0.2-    190317 900  0.2+  0.4-    190317 J95  0.2-  0.2-
190316 381  1.3-  0.2+    190317 P93  0.1+  0.2-    190317 J95  0.3+  0.1-
190316 P93  0.2-  0.0     190317 P93  0.1+  0.2+    190317 J95  0.0   0.1+
190316 P93  0.8-  0.6+    190317 P93  0.3+  0.8+

Ephemeris:
2019 FA                  a,e,i = 1.34, 0.30, 1                   q = 0.9415
Date    TT    R. A. (2000) Decl.     Delta      r     Elong.  Phase     V
2019 02 16    01 23 47.1 +01 56 03   0.09535 0.9343    53.6   121.7    28.4
...
2019 03 03    01 38 14.6 +03 07 02   0.04377 0.9593    42.5   135.8    28.1
...
2019 03 11    01 52 35.6 +04 44 23   0.01700 0.9800    38.4   140.9    26.8
...
2019 03 17    12 18 15.2 +07 01 15   0.0035630.9983   170.1     9.9    17.1
2019 03 18    13 04 29.3 +01 17 27   0.0067501.0015   161.0    18.9    18.8
2019 03 19    13 20 41.0 -00 45 25   0.01004 1.0046   157.8    22.0    19.8
...
2019 03 25    13 41 54.8 -03 30 20   0.03007 1.0250   157.9    21.4    22.2
...
2019 04 02    13 44 41.7 -04 05 38   0.05758 1.0550   164.6    14.5    23.4
...
2019 04 17    13 42 18.7 -04 31 03   0.1149  1.1180   174.2     5.2    24.7

A. U. Tomatic                (C) Copyright 2019 MPC           M.P.E.C. 2019-F19



More information about the Iaude mailing list